This is the latest recevied weather packets stored in our database for station/object KD8UYA. If no packets are shown the sender has not sent any weather packets the latest 10 day(s).
| Time | Temp. | Humidity | Pressure | Rain* | Wind** | Luminosity | Snow |
|---|---|---|---|---|---|---|---|
| 1778055336 | 6.67° C | 97% | 1005.6 hPa | 1.52 mm | - | - | - |
| 1778054430 | 6.67° C | 97% | 1005.7 hPa | 1.52 mm | - | - | - |
| 1778053522 | 7.22° C | 97% | 1005.6 hPa | 2.03 mm | - | - | - |
| 1778052621 | 7.22° C | 97% | 1005.4 hPa | 1.78 mm | - | - | - |
| 1778051720 | 7.22° C | 97% | 1005.1 hPa | 1.27 mm | - | - | - |
| 1778050819 | 7.22° C | 97% | 1005.1 hPa | 1.52 mm | - | - | - |
| 1778049917 | 7.22° C | 97% | 1005.2 hPa | 1.78 mm | - | - | - |
| 1778049015 | 7.22° C | 97% | 1005 hPa | 2.29 mm | - | - | - |
| 1778048114 | 7.22° C | 97% | 1005.4 hPa | 2.54 mm | - | - | - |
| 1778047213 | 7.22° C | 97% | 1005.4 hPa | 2.29 mm | - | - | - |
| 1778046310 | 7.22° C | 97% | 1005.4 hPa | 1.52 mm | - | - | - |
| 1778045409 | 7.22° C | 97% | 1005.6 hPa | 1.02 mm | - | - | - |
| 1778044507 | 7.22° C | 97% | 1005.5 hPa | 1.02 mm | - | - | - |
| 1778043605 | 7.22° C | 97% | 1005.6 hPa | 1.02 mm | - | - | - |
| 1778042703 | 7.78° C | 97% | 1005.7 hPa | 1.27 mm | - | - | - |
| 1778041860 | 7.78° C | 97% | 1005.8 hPa | 1.52 mm | - | - | - |
| 1778040968 | 8.33° C | 97% | 1005.9 hPa | 1.78 mm | - | - | - |
| 1778040055 | 8.33° C | 97% | 1006 hPa | 2.03 mm | - | - | - |
| 1778039155 | 8.89° C | 98% | 1006.2 hPa | 2.03 mm | - | - | - |
| 1778038250 | 8.89° C | 98% | 1006.2 hPa | 2.54 mm | - | - | - |
| 1778037349 | 8.89° C | 97% | 1006.2 hPa | 3.05 mm | - | - | - |
| 1778036448 | 8.89° C | 98% | 1006.5 hPa | 3.05 mm | - | - | - |
| 1778035547 | 8.89° C | 98% | 1006.6 hPa | 3.3 mm | - | - | - |
| 1778034661 | 8.89° C | 97% | 1006.1 hPa | 3.05 mm | - | - | - |
| 1778033765 | 8.89° C | 97% | 1006 hPa | 3.05 mm | - | - | - |
* Rain latest hour (hover to see other rain measurements)
** Current wind speed in m/s (hover to see current wind gust speed)